Overview Statistics Trail Chart Weather Telemetry Raw packets
 

This is the latest recevied weather packets stored in our database for station/object KL4TQ. If no packets are shown the sender has not sent any weather packets the latest 10 day(s).

<< 54 55 56 57 58 59 60 >>
Time Temp. Humidity Pressure Rain* Wind** Luminosity Snow
1777343168 10.56° C 43% 857 hPa 0 mm - 245 W/m² -
1777342869 10.56° C 44% 857 hPa 0 mm - 229 W/m² -
1777342570 10.56° C 44% 857 hPa 0 mm - 231 W/m² -
1777342269 10.56° C 43% 857 hPa 0 mm - 216 W/m² -
1777341968 10.56° C 43% 857 hPa 0 mm - 185 W/m² -
1777341669 10.56° C 43% 857 hPa 0 mm - 193 W/m² -
1777341368 10.56° C 43% 857 hPa 0 mm - 207 W/m² -
1777341068 11.11° C 43% 857 hPa 0 mm - 235 W/m² -
1777340768 11.11° C 42% 857 hPa 0 mm - 271 W/m² -
1777340468 11.11° C 42% 858 hPa 0 mm - 301 W/m² -
1777340169 11.11° C 42% 858 hPa 0 mm - 338 W/m² -
1777339869 11.11° C 41% 858 hPa 0 mm - 365 W/m² -
1777339569 11.67° C 41% 858 hPa 0 mm - 350 W/m² -
1777339268 11.67° C 41% 858 hPa 0 mm - 394 W/m² -
1777338969 11.67° C 41% 858 hPa 0 mm - 430 W/m² -
1777338668 11.67° C 40% 858 hPa 0 mm - 469 W/m² -
1777338368 11.67° C 39% 858 hPa 0 mm - 480 W/m² -
1777338069 11.67° C 39% 858 hPa 0 mm - 486 W/m² -
1777337768 12.22° C 39% 858 hPa 0 mm - 500 W/m² -
1777337469 12.22° C 38% 858 hPa 0 mm - 523 W/m² -
1777337168 12.78° C 38% 858 hPa 0 mm - 572 W/m² -
1777336869 12.22° C 39% 858 hPa 0 mm - 620 W/m² -
1777336569 11.67° C 39% 858 hPa 0 mm - 678 W/m² -
1777336268 11.67° C 40% 858 hPa 0 mm - 561 W/m² -
1777335968 11.11° C 41% 858 hPa 0 mm - 550 W/m² -

* Rain latest hour (hover to see other rain measurements)
** Current wind speed in m/s (hover to see current wind gust speed)